Flag for Liechtenstein Weather past 2 weeks in Vaduz, Liechtenstein

Now
35 °F

Chilly.


Feels Like: 35 °F
Forecast: 31 / 64 °F
Wind: 2 mph from Northeast

Location: Vaduz


UV Index: 3 (Moderate)

Visibility: N/A


Pressure: 30.36 "Hg

Humidity: 73%

Dew point: 27 °F

Location of VaduzLocation

Historic Weather in Vaduz

°F

Vaduz temperature yesterday

Maximum temperature yesterday: 51 °F (at 5:00 PM)
Minimum temperature yesterday: 41 °F (at 6:00 AM)
Average temperature yesterday: 46 °F

Past Weeks' High & Low Weather Summary

 TemperatureHumidityPressure
High72 °F (Apr 2, 3:00 PM)94% (Apr 13, 9:00 AM)30.35 "Hg (Apr 13, 9:00 AM)
Low36 °F (Apr 16, 6:00 AM)17% (Apr 2, 2:00 PM)29.64 "Hg (Apr 3, 2:00 PM)
Average55 °F54%30.00 "Hg
* Reported Apr 1 6:00 AM — Apr 16 6:00 AM, Vaduz, Weather by CustomWeather, © 2014

Note: Actual official high and low records may vary slightly from our data, if they occured in-between our weather recording intervals... More about our weather records

Advertising

Historic Weather Conditions — Data for Previous 24 hours

 ConditionsComfort  
Time TempWeatherWind HumidityBarometerVisibility
6:00 AM
Apr 16
36 °FChilly.3 mph68%30.35 "HgN/A
5:00 AM39 °FFog.3 mph61%30.34 "Hg8 mi
4:00 AM41 °FQuite cool.5 mph53%30.33 "HgN/A
3:00 AM41 °FQuite cool.6 mph52%30.32 "HgN/A
2:00 AM42 °FFog.9 mph49%30.32 "Hg8 mi
11:00 PM
Apr 15
44 °FFog.13 mph49%30.28 "Hg8 mi
10:00 PM45 °FQuite cool.8 mph49%30.26 "HgN/A
9:00 PM46 °FCool.6 mph40%30.24 "HgN/A
8:00 PM47 °FFog.3 mph41%30.23 "Hg8 mi
7:00 PM48 °FCool.5 mph37%30.22 "HgN/A
6:00 PM50 °FCool.9 mph36%30.21 "HgN/A
5:00 PM51 °FScattered clouds.9 mph34%30.21 "Hg12 mi
4:00 PM49 °FCool.10 mph38%30.22 "HgN/A
3:00 PM49 °FCool.12 mph41%30.23 "HgN/A
2:00 PM50 °FScattered clouds.8 mph44%30.22 "Hg12 mi
1:00 PM48 °FCool.8 mph41%30.22 "HgN/A
12:00 PM48 °FCool.8 mph44%30.23 "HgN/A
11:00 AM47 °FCool.9 mph47%30.24 "HgN/A
10:00 AM44 °FQuite cool.7 mph55%30.25 "HgN/A
9:00 AM42 °FQuite cool.3 mph60%30.26 "HgN/A
8:00 AM41 °FFog.6 mph63%30.24 "Hg9 mi
Weather by CustomWeather, © 2014

See weather overview